Location: Buch
(49.7331°N, 12.1098°E)
Time: 23:57:59
(UTC+00:00)

Cosmos 1470 Rocket - Pass Details

Date: 12 May 2021
Orbit: 603 x 634 km, 82.5° (Epoch: 23 June)

Event Time Altitude Azimuth Distance (km) Brightness Sun altitude
Rises 19:24:10 0° 355° (N) 2,941 7.7 -5.9°
Reaches altitude 10° 19:26:33 10° 3° (N) 2,030 6.7 -6.2°
Maximum altitude 19:30:46 39° 73° (ENE) 957 4.3 -6.8°
Drops below altitude 10° 19:34:59 10° 143° (SE) 2,015 5.6 -7.3°
Enters shadow 19:35:20 - 145° (SE) 2,148 5.7 -7.3°
